| time (UTC) | temp F | wind direction | speed MPH | gust MPH | rain 1hr in | rain 24hr in | rain mn in | humidity % | barometer mb |
| 20260904074514 | 57 | 254 | 0.0 | 1.0 | 0.00 | 0.00 | 0.00 | 77 | 998.0 |
| 20260904073011 | 56 | 325 | 0.0 | 1.0 | 0.00 | 0.00 | 0.00 | 81 | 998.0 |
| 20260904071504 | 54 | 336 | 2.0 | 4.0 | 0.00 | 0.00 | 0.00 | 84 | 998.0 |
| 20260904070000 | 53 | 330 | 2.0 | 4.0 | 0.00 | 0.00 | 0.00 | 89 | 998.2 |
| 20260904064556 | 52 | 157 | 0.0 | 0.0 | 0.00 | 0.00 | 0.00 | 92 | 998.2 |
| 20260904063052 | 50 | 157 | 0.0 | 2.0 | 0.00 | 0.00 | 0.00 | 93 | 998.3 |
| 20260904061548 | 49 | 157 | 0.0 | 0.0 | 0.00 | 0.00 | 0.00 | 93 | 998.4 |
| 20260904060050 | 47 | 157 | 0.0 | 0.0 | 0.00 | 0.00 | 0.00 | 93 | 998.3 |
| 20260904054542 | 45 | 157 | 0.0 | 0.0 | 0.00 | 0.00 | 0.00 | 93 | 998.2 |
| 20260904053042 | 43 | 157 | 0.0 | 0.0 | 0.00 | 0.00 | 0.00 | 93 | 998.3 |
| 20260904051538 | 41 | 157 | 0.0 | 0.0 | 0.00 | 0.00 | 0.00 | 93 | 998.4 |
| 20260904050040 | 40 | 157 | 0.0 | 0.0 | 0.00 | 0.00 | 0.00 | 93 | 998.5 |
| 20260904044535 | 40 | 157 | 0.0 | 0.0 | 0.00 | 0.00 | 0.00 | 93 | 998.6 |
| 20260904043033 | 39 | 157 | 0.0 | 0.0 | 0.00 | 0.00 | 0.00 | 93 | 998.6 |
| 20260904041532 | 39 | 157 | 0.0 | 0.0 | 0.00 | 0.00 | 0.00 | 93 | 998.8 |
| 20260904040037 | 39 | 157 | 0.0 | 0.0 | 0.00 | 0.00 | 0.00 | 93 | 998.7 |
| 20260904034534 | 40 | 157 | 0.0 | 0.0 | 0.00 | 0.00 | 0.00 | 93 | 998.7 |
| 20260904033029 | 40 | 157 | 0.0 | 2.0 | 0.00 | 0.00 | 0.00 | 93 | 998.8 |
| 20260904031526 | 40 | 157 | 0.0 | 0.0 | 0.00 | 0.00 | 0.00 | 93 | 998.7 |
| 20260904030025 | 39 | 157 | 0.0 | 0.0 | 0.00 | 0.00 | 0.00 | 93 | 998.8 |
| 20260904024524 | 40 | 157 | 0.0 | 0.0 | 0.00 | 0.00 | 0.00 | 93 | 998.9 |
| 20260904023021 | 40 | 157 | 0.0 | 0.0 | 0.00 | 0.00 | 0.00 | 93 | 999.0 |
| 20260904021520 | 39 | 157 | 0.0 | 0.0 | 0.00 | 0.00 | 0.00 | 93 | 999.0 |
| 20260904020018 | 40 | 157 | 0.0 | 0.0 | 0.00 | 0.00 | 0.00 | 93 | 999.2 |
| 20260904014514 | 41 | 157 | 0.0 | 0.0 | 0.00 | 0.00 | 0.00 | 93 | 999.3 |
| 20260904013011 | 41 | 157 | 0.0 | 0.0 | 0.00 | 0.00 | 0.00 | 93 | 999.5 |
| 20260904011521 | 41 | 157 | 0.0 | 0.0 | 0.00 | 0.00 | 0.00 | 93 | 999.7 |
| 20260904010010 | 41 | 157 | 0.0 | 0.0 | 0.00 | 0.00 | 0.00 | 93 | 999.8 |
| 20260904004503 | 41 | 157 | 0.0 | 0.0 | 0.00 | 0.00 | 0.00 | 93 | 1000.0 |
| 20260904003002 | 41 | 157 | 0.0 | 0.0 | 0.00 | 0.00 | 0.00 | 92 | 1000.0 |
| 20260904001606 | 42 | 157 | 0.0 | 0.0 | 0.00 | 0.00 | 0.00 | 92 | 1000.1 |
| 20260904000059 | 42 | 157 | 0.0 | 0.0 | 0.00 | 0.00 | 0.00 | 92 | 1000.2 |
| 20260903234557 | 43 | 157 | 0.0 | 0.0 | 0.00 | 0.00 | 0.00 | 92 | 1000.2 |
| 20260903233054 | 43 | 157 | 0.0 | 0.0 | 0.00 | 0.00 | 0.00 | 92 | 1000.3 |
| 20260903231551 | 44 | 157 | 0.0 | 0.0 | 0.00 | 0.00 | 0.00 | 92 | 1000.3 |
| 20260903230048 | 44 | 157 | 0.0 | 0.0 | 0.00 | 0.00 | 0.00 | 91 | 1000.5 |
| 20260903224545 | 45 | 157 | 0.0 | 0.0 | 0.00 | 0.00 | 0.00 | 91 | 1000.7 |
| 20260903223050 | 45 | 157 | 0.0 | 1.0 | 0.00 | 0.00 | 0.00 | 91 | 1000.9 |
| 20260903221539 | 45 | 157 | 0.0 | 0.0 | 0.00 | 0.00 | 0.00 | 91 | 1001.0 |
| 20260903220054 | 45 | 157 | 0.0 | 0.0 | 0.00 | 0.00 | 0.00 | 90 | 1001.1 |
| 20260903214535 | 46 | 157 | 0.0 | 0.0 | 0.00 | 0.00 | 0.00 | 90 | 1001.2 |
| 20260903213036 | 46 | 157 | 0.0 | 1.0 | 0.00 | 0.00 | 0.00 | 89 | 1001.2 |
| 20260903211531 | 46 | 157 | 0.0 | 0.0 | 0.00 | 0.00 | 0.00 | 88 | 1001.3 |
| 20260903210030 | 47 | 157 | 0.0 | 0.0 | 0.00 | 0.00 | 0.00 | 88 | 1001.4 |
| 20260903204527 | 47 | 157 | 0.0 | 0.0 | 0.00 | 0.00 | 0.00 | 88 | 1001.4 |
| 20260903203025 | 48 | 157 | 0.0 | 3.0 | 0.00 | 0.00 | 0.00 | 87 | 1001.6 |
| 20260903201524 | 48 | 184 | 0.0 | 0.0 | 0.00 | 0.00 | 0.00 | 85 | 1001.7 |
| 20260903200020 | 49 | 184 | 0.0 | 3.0 | 0.00 | 0.00 | 0.00 | 84 | 1001.8 |
| 20260903194517 | 50 | 197 | 0.0 | 0.0 | 0.00 | 0.00 | 0.00 | 84 | 1001.9 |
| 20260903193015 | 50 | 197 | 0.0 | 0.0 | 0.00 | 0.00 | 0.00 | 83 | 1001.9 |
| 20260903191512 | 51 | 197 | 0.0 | 0.0 | 0.00 | 0.00 | 0.00 | 80 | 1002.0 |
| 20260903190009 | 52 | 197 | 0.0 | 0.0 | 0.00 | 0.00 | 0.00 | 77 | 1002.2 |
| 20260903184507 | 53 | 197 | 0.0 | 0.0 | 0.00 | 0.00 | 0.00 | 75 | 1002.2 |
| 20260903183006 | 55 | 197 | 0.0 | 0.0 | 0.00 | 0.00 | 0.00 | 72 | 1002.2 |
| 20260903181509 | 56 | 197 | 0.0 | 0.0 | 0.00 | 0.00 | 0.00 | 68 | 1002.3 |
| 20260903180007 | 59 | 197 | 0.0 | 2.0 | 0.00 | 0.00 | 0.00 | 62 | 1002.3 |
| 20260903174504 | 60 | 197 | 2.0 | 4.0 | 0.00 | 0.00 | 0.00 | 59 | 1002.2 |
| 20260903173017 | 62 | 200 | 2.0 | 4.0 | 0.00 | 0.00 | 0.00 | 57 | 1002.2 |
| 20260903171504 | 62 | 236 | 2.0 | 8.0 | 0.00 | 0.00 | 0.00 | 55 | 1002.3 |
| 20260903170004 | 63 | 200 | 4.0 | 8.0 | 0.00 | 0.00 | 0.00 | 55 | 1002.3 |
| 20260903164503 | 63 | 233 | 6.0 | 11.0 | 0.00 | 0.00 | 0.00 | 53 | 1002.2 |
| 20260903163001 | 64 | 198 | 6.0 | 10.0 | 0.00 | 0.00 | 0.00 | 53 | 1002.3 |
| 20260903161600 | 64 | 212 | 5.0 | 9.0 | 0.00 | 0.00 | 0.00 | 53 | 1002.2 |
| 20260903160100 | 64 | 165 | 7.0 | 11.0 | 0.00 | 0.00 | 0.00 | 52 | 1002.3 |
| 20260903154557 | 65 | 205 | 5.0 | 10.0 | 0.00 | 0.00 | 0.00 | 52 | 1002.5 |
| 20260903153055 | 65 | 248 | 7.0 | 14.0 | 0.00 | 0.00 | 0.00 | 51 | 1002.6 |
| 20260903151607 | 65 | 197 | 8.0 | 11.0 | 0.00 | 0.00 | 0.00 | 50 | 1002.6 |
| 20260903144551 | 65 | 211 | 8.0 | 13.0 | 0.00 | 0.00 | 0.00 | 52 | 1002.6 |
| 20260903143055 | 65 | 184 | 9.0 | 15.0 | 0.00 | 0.00 | 0.00 | 52 | 1002.5 |
| 20260903141546 | 65 | 196 | 8.0 | 16.0 | 0.00 | 0.00 | 0.00 | 51 | 1002.7 |
| 20260903140044 | 65 | 207 | 9.0 | 16.0 | 0.00 | 0.00 | 0.00 | 51 | 1002.8 |
| 20260903134548 | 65 | 204 | 10.0 | 16.0 | 0.00 | 0.00 | 0.00 | 52 | 1002.9 |
| 20260903133038 | 65 | 214 | 8.0 | 19.0 | 0.00 | 0.00 | 0.00 | 53 | 1003.0 |
| 20260903131535 | 64 | 222 | 9.0 | 16.0 | 0.00 | 0.00 | 0.00 | 53 | 1003.0 |
| 20260903130033 | 64 | 227 | 9.0 | 14.0 | 0.00 | 0.00 | 0.00 | 54 | 1003.0 |
| 20260903124530 | 64 | 264 | 8.0 | 18.0 | 0.00 | 0.00 | 0.00 | 55 | 1003.2 |
| 20260903123030 | 63 | 200 | 9.0 | 15.0 | 0.00 | 0.00 | 0.00 | 56 | 1003.2 |
| 20260903121528 | 63 | 194 | 7.0 | 18.0 | 0.00 | 0.00 | 0.00 | 55 | 1003.3 |
| 20260903120027 | 63 | 235 | 9.0 | 17.0 | 0.00 | 0.00 | 0.00 | 55 | 1003.4 |
| 20260903114531 | 62 | 221 | 4.0 | 17.0 | 0.00 | 0.00 | 0.00 | 56 | 1003.5 |
| 20260903113026 | 63 | 267 | 8.0 | 16.0 | 0.00 | 0.00 | 0.00 | 56 | 1003.4 |
| 20260903111521 | 62 | 229 | 9.0 | 17.0 | 0.00 | 0.00 | 0.00 | 55 | 1003.5 |
| 20260903110020 | 62 | 223 | 11.0 | 17.0 | 0.00 | 0.00 | 0.00 | 55 | 1003.6 |
| 20260903104516 | 61 | 233 | 10.0 | 18.0 | 0.00 | 0.00 | 0.00 | 56 | 1003.8 |
| 20260903103014 | 61 | 217 | 9.0 | 19.0 | 0.00 | 0.00 | 0.00 | 57 | 1003.7 |
| 20260903101511 | 61 | 216 | 9.0 | 16.0 | 0.00 | 0.00 | 0.00 | 57 | 1003.7 |
| 20260903100010 | 60 | 242 | 11.0 | 15.0 | 0.00 | 0.00 | 0.00 | 61 | 1003.8 |
| 20260903094507 | 60 | 196 | 9.0 | 20.0 | 0.00 | 0.00 | 0.00 | 62 | 1003.8 |
| 20260903093014 | 59 | 252 | 8.0 | 17.0 | 0.00 | 0.00 | 0.00 | 64 | 1003.9 |
| 20260903091505 | 59 | 229 | 10.0 | 16.0 | 0.00 | 0.00 | 0.00 | 64 | 1003.9 |
| 20260903090002 | 59 | 214 | 6.0 | 13.0 | 0.00 | 0.00 | 0.00 | 66 | 1003.8 |
| 20260903084557 | 59 | 229 | 7.0 | 13.0 | 0.00 | 0.00 | 0.00 | 68 | 1003.9 |
| 20260903083054 | 58 | 242 | 7.0 | 17.0 | 0.00 | 0.00 | 0.00 | 69 | 1004.0 |
| 20260903081554 | 58 | 266 | 7.0 | 17.0 | 0.00 | 0.00 | 0.00 | 70 | 1004.1 |
| 20260903080048 | 58 | 200 | 6.0 | 13.0 | 0.00 | 0.00 | 0.00 | 72 | 1004.2 |